JTC232 KTLH-KSJC

Flight info

Callsign JTC232
Flight time N/A
Altitude 43000
Route DCT DEFUN DCT CEW DCT ACMES DCT AEX DCT INDIE DCT ACT DCT SHLLY DCT ABI DCT CME J15 HONDS DCT ONM DCT ZUN DCT VALEQ DCT DYSSS DCT FAANG RAZRR5
Aircraft C750/M-SDE3FGHIRWY/LB1

Departure

Time 2026-04-15 22:35
Airport Tallahassee International Airport (KTLH)

Arrival

Time N/A
Airport Norman Y. Mineta San Jose International Airport (KSJC)
Time Latitude Longitude Altitude Speed Heading
2026-04-15 22:25 30.39621 -84.35508 66 ft 0 kts 94°
2026-04-15 22:30 30.39599 -84.35497 65 ft 7 kts 197°
2026-04-15 22:30 30.39584 -84.35568 66 ft 12 kts 275°
2026-04-15 22:31 30.39620 -84.35651 67 ft 12 kts 329°
2026-04-15 22:31 30.39707 -84.35661 66 ft 15 kts 353°
2026-04-15 22:31 30.39797 -84.35715 68 ft 14 kts 329°
2026-04-15 22:31 30.39880 -84.35755 64 ft 14 kts 357°
2026-04-15 22:32 30.39997 -84.35757 68 ft 19 kts 359°
2026-04-15 22:32 30.40121 -84.35758 65 ft 17 kts 360°
2026-04-15 22:32 30.40236 -84.35759 68 ft 17 kts 359°
2026-04-15 22:32 30.40366 -84.35761 63 ft 20 kts 359°
2026-04-15 22:33 30.40502 -84.35762 61 ft 19 kts 359°
2026-04-15 22:33 30.40628 -84.35763 68 ft 18 kts 359°
2026-04-15 22:33 30.40768 -84.35765 69 ft 22 kts 360°
2026-04-15 22:33 30.40935 -84.35766 69 ft 26 kts 359°
2026-04-15 22:34 30.41101 -84.35769 61 ft 20 kts
2026-04-15 22:34 30.41215 -84.35775 69 ft 12 kts 330°
2026-04-15 22:34 30.41233 -84.35854 69 ft 10 kts 268°
2026-04-15 22:34 30.41198 -84.35898 65 ft 7 kts 186°
2026-04-15 22:35 30.41147 -84.35898 70 ft 32 kts 179°
2026-04-15 22:35 30.40594 -84.35891 63 ft 128 kts 179°
2026-04-15 22:35 30.39520 -84.35883 237 ft 171 kts 180°
2026-04-15 22:35 30.38309 -84.35884 934 ft 170 kts 180°
2026-04-15 22:36 30.37085 -84.35864 1435 ft 187 kts 179°
2026-04-15 22:36 30.35762 -84.36360 1560 ft 224 kts 217°
2026-04-15 22:36 30.34917 -84.38014 1860 ft 259 kts 255°
2026-04-15 22:36 30.35072 -84.40081 2819 ft 260 kts 284°
2026-04-15 22:37 30.35689 -84.42053 3778 ft 263 kts 289°
2026-04-15 22:37 30.36309 -84.44053 4730 ft 264 kts 287°
2026-04-15 22:37 30.36852 -84.46095 5623 ft 267 kts 286°
2026-04-15 22:37 30.37395 -84.48149 6423 ft 273 kts 287°
2026-04-15 22:38 30.37979 -84.50264 7223 ft 278 kts 287°
2026-04-15 22:38 30.38575 -84.52416 8069 ft 283 kts 286°
2026-04-15 22:38 30.39175 -84.54610 8944 ft 289 kts 285°
2026-04-15 22:38 30.39785 -84.56846 9799 ft 294 kts 285°
2026-04-15 22:39 30.40411 -84.59139 10344 ft 307 kts 285°
2026-04-15 22:39 30.41083 -84.61605 10445 ft 335 kts 285°
2026-04-15 22:39 30.41811 -84.64273 10518 ft 359 kts 286°
2026-04-15 22:39 30.42569 -84.67035 11230 ft 359 kts 286°
2026-04-15 22:40 30.43325 -84.69802 11914 ft 362 kts 286°
2026-04-15 22:40 30.44083 -84.72599 12564 ft 365 kts 285°
2026-04-15 22:40 30.44849 -84.75418 13208 ft 368 kts 286°
2026-04-15 22:41 30.46139 -84.80158 14221 ft 373 kts 286°
2026-04-15 22:41 30.46919 -84.83037 14789 ft 376 kts 286°
2026-04-15 22:41 30.47705 -84.85936 15370 ft 378 kts 286°
2026-04-15 22:41 30.48494 -84.88852 15937 ft 381 kts 286°
2026-04-15 22:42 30.49289 -84.91791 16525 ft 384 kts 286°
2026-04-15 22:42 30.50090 -84.94754 17108 ft 387 kts 286°
2026-04-15 22:42 30.50897 -84.97744 17709 ft 390 kts 286°
2026-04-15 22:42 30.51710 -85.00760 18337 ft 393 kts 286°
2026-04-15 22:43 30.52530 -85.03800 18883 ft 397 kts 286°
2026-04-15 22:43 30.53355 -85.06867 19414 ft 400 kts 285°
2026-04-15 22:43 30.54187 -85.09969 19951 ft 404 kts 285°
2026-04-15 22:43 30.55027 -85.13094 20503 ft 408 kts 285°
2026-04-15 22:44 30.55875 -85.16250 21062 ft 411 kts 285°
2026-04-15 22:44 30.56727 -85.19430 21648 ft 414 kts 285°
2026-04-15 22:44 30.57585 -85.22638 22194 ft 418 kts 285°
2026-04-15 22:44 30.58449 -85.25871 22742 ft 422 kts 285°
2026-04-15 22:45 30.59323 -85.29140 23301 ft 426 kts 285°
2026-04-15 22:45 30.60203 -85.32438 23841 ft 429 kts 285°
2026-04-15 22:45 30.61088 -85.35758 24342 ft 432 kts 285°
2026-04-15 22:45 30.61977 -85.39099 24865 ft 433 kts 285°
2026-04-15 22:46 30.62867 -85.42445 25376 ft 435 kts 285°
2026-04-15 22:46 30.63761 -85.45813 25862 ft 438 kts 285°
2026-04-15 22:46 30.64660 -85.49200 26370 ft 440 kts 285°
2026-04-15 22:46 30.65562 -85.52605 26869 ft 442 kts 285°
2026-04-15 22:47 30.66467 -85.56025 27348 ft 444 kts 285°
2026-04-15 22:47 30.67377 -85.59468 27846 ft 447 kts 285°
2026-04-15 22:47 30.68292 -85.62932 28337 ft 449 kts 285°
2026-04-15 22:47 30.69197 -85.66367 28804 ft 452 kts 285°
2026-04-15 22:48 30.70130 -85.69908 29268 ft 454 kts 285°
2026-04-15 22:48 30.71045 -85.73386 29724 ft 456 kts 285°
2026-04-15 22:48 30.71974 -85.76924 30170 ft 459 kts 285°
2026-04-15 22:48 30.72910 -85.80487 30543 ft 461 kts 285°
2026-04-15 22:49 30.73845 -85.84056 30918 ft 463 kts 285°
2026-04-15 22:49 30.74783 -85.87638 31382 ft 462 kts 285°
2026-04-15 22:49 30.75711 -85.91187 32010 ft 458 kts 285°
2026-04-15 22:49 30.76634 -85.94721 32584 ft 455 kts 285°
2026-04-15 22:50 30.77548 -85.98227 33145 ft 452 kts 286°
2026-04-15 22:50 30.78457 -86.01717 33716 ft 450 kts 286°
2026-04-15 22:50 30.79361 -86.05190 34279 ft 447 kts 286°
2026-04-15 22:50 30.80255 -86.08633 34841 ft 443 kts 286°
2026-04-15 22:51 30.81077 -86.12055 35513 ft 435 kts 282°
2026-04-15 22:51 30.81475 -86.15511 36219 ft 428 kts 275°
2026-04-15 22:51 30.81558 -86.18942 36912 ft 420 kts 272°
2026-04-15 22:51 30.81632 -86.22300 37633 ft 411 kts 273°
2026-04-15 22:52 30.81716 -86.25594 38285 ft 404 kts 274°
2026-04-15 22:52 30.81794 -86.28841 38862 ft 398 kts 274°
2026-04-15 22:52 30.81862 -86.32042 39281 ft 394 kts 274°
2026-04-15 22:52 30.81932 -86.35233 39637 ft 394 kts 274°
2026-04-15 22:53 30.82004 -86.38412 40024 ft 393 kts 274°
2026-04-15 22:53 30.82074 -86.41592 40431 ft 392 kts 274°
2026-04-15 22:53 30.82142 -86.44771 40827 ft 392 kts 274°
2026-04-15 22:53 30.82208 -86.47893 41212 ft 391 kts 274°
2026-04-15 22:54 30.82275 -86.51058 41592 ft 391 kts 274°
2026-04-15 22:54 30.82341 -86.54217 41955 ft 390 kts 274°
2026-04-15 22:54 30.82406 -86.57373 42322 ft 390 kts 273°
2026-04-15 22:54 30.82470 -86.60520 42728 ft 388 kts 273°
2026-04-15 22:55 30.82533 -86.63651 43093 ft 383 kts 273°
2026-04-15 22:55 30.82595 -86.66759 43163 ft 388 kts 273°
2026-04-15 22:55 30.82959 -86.73125 43181 ft 400 kts 276°
2026-04-15 22:56 30.83372 -86.79690 43172 ft 413 kts 275°
2026-04-15 22:56 30.83801 -86.86424 43177 ft 419 kts 275°
2026-04-15 22:57 30.84226 -86.93204 43176 ft 420 kts 275°
2026-04-15 22:57 30.84648 -86.99973 43177 ft 419 kts 275°
2026-04-15 22:58 30.85064 -87.06691 43176 ft 419 kts 275°
2026-04-15 22:58 30.85478 -87.13455 43170 ft 419 kts 275°
2026-04-15 22:59 30.85889 -87.20223 43145 ft 419 kts 275°
2026-04-15 22:59 30.86296 -87.26988 43156 ft 419 kts 275°
2026-04-15 23:00 30.86701 -87.33756 43159 ft 419 kts 275°
2026-04-15 23:00 30.87098 -87.40493 43158 ft 417 kts 274°
2026-04-15 23:01 30.87494 -87.47224 43159 ft 417 kts 274°
2026-04-15 23:01 30.87885 -87.53957 43160 ft 417 kts 274°
2026-04-15 23:02 30.88274 -87.60698 43165 ft 417 kts 274°
2026-04-15 23:02 30.88659 -87.67433 43165 ft 417 kts 274°
2026-04-15 23:03 30.89039 -87.74165 43162 ft 415 kts 274°
2026-04-15 23:03 30.89414 -87.80868 43162 ft 415 kts 274°
2026-04-15 23:04 30.89786 -87.87570 43160 ft 415 kts 274°
2026-04-15 23:04 30.90156 -87.94284 43161 ft 415 kts 274°
2026-04-15 23:05 30.90522 -88.00998 43160 ft 415 kts 274°
2026-04-15 23:05 30.90882 -88.07659 43156 ft 415 kts 274°
2026-04-15 23:06 30.91238 -88.14353 43159 ft 413 kts 273°
2026-04-15 23:06 30.91593 -88.21036 43158 ft 413 kts 273°
2026-04-15 23:07 30.91943 -88.27729 43158 ft 413 kts 273°
2026-04-15 23:07 30.92291 -88.34411 43156 ft 414 kts 273°
2026-04-15 23:08 30.92824 -88.41087 43148 ft 414 kts 276°
2026-04-15 23:08 30.93459 -88.47745 43159 ft 413 kts 275°
2026-04-15 23:09 30.94094 -88.54381 43139 ft 412 kts 275°
2026-04-15 23:09 30.94726 -88.61015 43148 ft 412 kts 275°
2026-04-15 23:10 30.95352 -88.67648 43141 ft 412 kts 275°
2026-04-15 23:10 30.95974 -88.74241 43131 ft 411 kts 275°
2026-04-15 23:11 30.96593 -88.80867 43134 ft 412 kts 275°
2026-04-15 23:11 30.97211 -88.87505 43140 ft 411 kts 274°
2026-04-15 23:12 30.97823 -88.94123 43131 ft 411 kts 274°
2026-04-15 23:12 30.98432 -89.00741 43131 ft 411 kts 274°
2026-04-15 23:13 30.99038 -89.07367 43132 ft 411 kts 274°
2026-04-15 23:13 30.99640 -89.13990 43133 ft 411 kts 274°
2026-04-15 23:14 31.00239 -89.20616 43130 ft 411 kts 274°
2026-04-15 23:14 31.00834 -89.27241 43123 ft 410 kts 274°
2026-04-15 23:15 31.01426 -89.33862 43124 ft 411 kts 274°
2026-04-15 23:15 31.02014 -89.40485 43127 ft 411 kts 274°
2026-04-15 23:16 31.02600 -89.47111 43128 ft 411 kts 274°
2026-04-15 23:16 31.03181 -89.53733 43130 ft 411 kts 274°
2026-04-15 23:17 31.03756 -89.60315 43134 ft 410 kts 274°
2026-04-15 23:17 31.04330 -89.66935 43134 ft 410 kts 274°
2026-04-15 23:18 31.04901 -89.73559 43132 ft 411 kts 274°
2026-04-15 23:18 31.05470 -89.80187 43131 ft 411 kts 274°
2026-04-15 23:19 31.06033 -89.86809 43131 ft 410 kts 273°
2026-04-15 23:19 31.06595 -89.93438 43130 ft 411 kts 273°
2026-04-15 23:20 31.07153 -90.00066 43141 ft 411 kts 273°
2026-04-15 23:20 31.07706 -90.06689 43128 ft 410 kts 273°
2026-04-15 23:21 31.08257 -90.13307 43124 ft 410 kts 273°
2026-04-15 23:21 31.08804 -90.19930 43123 ft 410 kts 272°
2026-04-15 23:22 31.09343 -90.26505 43118 ft 410 kts 272°
2026-04-15 23:22 31.09883 -90.33123 43116 ft 410 kts 272°
2026-04-15 23:23 31.10420 -90.39746 43123 ft 410 kts 272°
2026-04-15 23:23 31.10953 -90.46370 43115 ft 410 kts 272°
2026-04-15 23:24 31.11483 -90.52994 43115 ft 410 kts 272°
2026-04-15 23:24 31.12010 -90.59622 43121 ft 410 kts 272°
2026-04-15 23:25 31.12531 -90.66218 43111 ft 410 kts 272°
2026-04-15 23:25 31.13050 -90.72836 43111 ft 410 kts 272°
2026-04-15 23:26 31.13565 -90.79458 43104 ft 409 kts 272°
2026-04-15 23:26 31.14078 -90.86074 43104 ft 409 kts 271°
2026-04-15 23:27 31.14586 -90.92691 43099 ft 409 kts 271°
2026-04-15 23:27 31.15092 -90.99313 43100 ft 409 kts 271°
2026-04-15 23:28 31.15509 -91.04812 43096 ft 409 kts 271°
2026-04-15 23:28 31.16008 -91.11426 43091 ft 409 kts 271°
2026-04-15 23:29 31.16504 -91.18047 43098 ft 408 kts 271°
2026-04-15 23:29 31.16994 -91.24642 43090 ft 408 kts 271°
2026-04-15 23:30 31.17481 -91.31238 43087 ft 407 kts 271°
2026-04-15 23:30 31.17965 -91.37842 43083 ft 408 kts 271°
2026-04-15 23:31 31.18446 -91.44443 43078 ft 408 kts 271°
2026-04-15 23:31 31.18924 -91.51050 43078 ft 408 kts 271°
2026-04-15 23:32 31.19394 -91.57609 43073 ft 407 kts 270°
2026-04-15 23:32 31.19865 -91.64201 43073 ft 407 kts 270°
2026-04-15 23:33 31.20331 -91.70800 43068 ft 407 kts 270°
2026-04-15 23:33 31.20794 -91.77388 43067 ft 407 kts 270°
2026-04-15 23:34 31.21255 -91.83991 43064 ft 407 kts 270°
2026-04-15 23:36 31.22834 -92.07034 43090 ft 406 kts 270°
2026-04-15 23:36 31.23277 -92.13604 43077 ft 406 kts 270°
2026-04-15 23:37 31.23716 -92.20173 43050 ft 406 kts 270°
2026-04-15 23:37 31.24150 -92.26709 43050 ft 406 kts 270°
2026-04-15 23:38 31.24583 -92.33283 43048 ft 405 kts 269°
2026-04-15 23:38 31.25012 -92.39849 43055 ft 405 kts 269°
2026-04-15 23:39 31.25438 -92.46419 43056 ft 405 kts 269°
2026-04-15 23:39 31.26033 -92.52987 43046 ft 408 kts 273°
2026-04-15 23:40 31.26836 -92.59558 43056 ft 408 kts 272°
2026-04-15 23:40 31.27638 -92.66129 43060 ft 408 kts 272°
2026-04-15 23:41 31.28436 -92.72692 43057 ft 407 kts 272°
2026-04-15 23:41 31.29224 -92.79214 43061 ft 408 kts 272°
2026-04-15 23:42 31.30016 -92.85778 43070 ft 408 kts 272°
2026-04-15 23:42 31.30803 -92.92349 43067 ft 408 kts 272°
2026-04-15 23:43 31.31588 -92.98917 43063 ft 407 kts 272°
2026-04-15 23:43 31.32368 -93.05485 43081 ft 408 kts 272°
2026-04-15 23:44 31.33146 -93.12059 43061 ft 409 kts 272°
2026-04-15 23:44 31.33922 -93.18639 43060 ft 408 kts 272°
2026-04-15 23:45 31.34690 -93.25185 43048 ft 408 kts 272°
2026-04-15 23:45 31.35458 -93.31763 43049 ft 408 kts 272°
2026-04-15 23:46 31.36221 -93.38344 43044 ft 409 kts 271°
2026-04-15 23:46 31.36984 -93.44923 43044 ft 408 kts 271°
2026-04-15 23:47 31.37742 -93.51505 43047 ft 408 kts 271°
2026-04-15 23:47 31.38497 -93.58087 43048 ft 408 kts 271°
2026-04-15 23:48 31.39249 -93.64673 43048 ft 408 kts 271°
2026-04-15 23:48 31.39996 -93.71255 43047 ft 408 kts 271°
2026-04-15 23:49 31.40741 -93.77838 43047 ft 408 kts 271°
2026-04-15 23:49 31.41482 -93.84437 43037 ft 409 kts 271°
2026-04-15 23:50 31.42223 -93.91042 43036 ft 409 kts 271°
2026-04-15 23:50 31.42958 -93.97643 43037 ft 409 kts 271°
2026-04-15 23:51 31.44056 -94.07547 43042 ft 409 kts 271°
2026-04-15 23:51 31.44779 -94.14111 43038 ft 409 kts 271°
2026-04-15 23:52 31.45503 -94.20718 43072 ft 410 kts 271°
2026-04-15 23:52 31.46223 -94.27324 43036 ft 409 kts 271°
2026-04-15 23:53 31.46942 -94.33936 43037 ft 409 kts 271°
2026-04-15 23:53 31.47654 -94.40537 43038 ft 409 kts 271°
2026-04-15 23:54 31.48366 -94.47152 43040 ft 409 kts 271°
2026-04-15 23:54 31.48923 -94.53756 43037 ft 407 kts 269°
2026-04-15 23:55 31.49414 -94.60361 43042 ft 405 kts 269°
2026-04-15 23:55 31.49895 -94.66936 43039 ft 405 kts 269°
2026-04-15 23:56 31.50374 -94.73511 43028 ft 405 kts 269°
2026-04-15 23:56 31.50847 -94.80051 43029 ft 405 kts 269°
2026-04-15 23:57 31.51320 -94.86636 43030 ft 405 kts 269°
2026-04-15 23:57 31.51788 -94.93212 43032 ft 405 kts 269°
2026-04-15 23:58 31.52253 -94.99797 43029 ft 405 kts 268°
2026-04-15 23:58 31.52717 -95.06384 43022 ft 406 kts 268°
2026-04-15 23:59 31.53175 -95.12977 43020 ft 406 kts 268°
2026-04-15 23:59 31.53632 -95.19569 43012 ft 406 kts 268°
2026-04-16 00:00 31.54083 -95.26073 44283 ft 381 kts 268°
2026-04-16 00:00 31.54296 -95.29112 44975 ft 371 kts 268°
2026-04-16 00:00 31.54490 -95.32142 45123 ft 374 kts 268°
2026-04-16 00:01 31.54687 -95.35140 45375 ft 375 kts 268°
2026-04-16 00:01 31.54899 -95.38189 45566 ft 375 kts 268°
2026-04-16 00:01 31.55107 -95.41237 45797 ft 375 kts 268°
2026-04-16 00:01 31.55310 -95.44286 46022 ft 375 kts 268°
2026-04-16 00:02 31.55512 -95.47331 46238 ft 375 kts 268°
2026-04-16 00:02 31.55716 -95.50380 46434 ft 375 kts 268°
2026-04-16 00:02 31.55918 -95.53426 46630 ft 375 kts 268°
2026-04-16 00:02 31.56120 -95.56480 46818 ft 375 kts 268°
2026-04-16 00:03 31.56321 -95.59530 46996 ft 375 kts 268°
2026-04-16 00:03 31.56521 -95.62597 47006 ft 380 kts 268°
2026-04-16 00:03 31.56928 -95.68851 47014 ft 388 kts 268°
2026-04-16 00:04 31.57343 -95.75221 47016 ft 392 kts 268°
2026-04-16 00:04 31.57755 -95.81660 47014 ft 399 kts 268°
2026-04-16 00:05 31.58173 -95.88178 47012 ft 401 kts 268°
2026-04-16 00:05 31.58586 -95.94710 47010 ft 401 kts 268°
2026-04-16 00:06 31.58996 -96.01250 47005 ft 401 kts 268°
2026-04-16 00:06 31.59398 -96.07604 46985 ft 377 kts 268°
2026-04-16 00:07 31.59586 -96.10612 46657 ft 366 kts 267°
2026-04-16 00:07 31.59760 -96.13587 46200 ft 366 kts 267°
2026-04-16 00:07 31.59939 -96.16573 45648 ft 367 kts 267°
2026-04-16 00:07 31.60126 -96.19565 45089 ft 367 kts 267°
2026-04-16 00:08 31.60310 -96.22547 44509 ft 366 kts 267°
2026-04-16 00:08 31.60490 -96.25520 43846 ft 365 kts 267°
2026-04-16 00:08 31.60667 -96.28493 43212 ft 369 kts 267°
2026-04-16 00:08 31.60846 -96.31555 43021 ft 381 kts 267°
2026-04-16 00:09 31.61230 -96.37879 43005 ft 395 kts 267°
2026-04-16 00:09 31.61615 -96.44348 42997 ft 399 kts 267°
2026-04-16 00:10 31.61997 -96.50848 42988 ft 399 kts 267°
2026-04-16 00:10 31.62378 -96.57360 42982 ft 400 kts 267°
2026-04-16 00:11 31.62754 -96.63874 43006 ft 400 kts 267°
2026-04-16 00:11 31.63127 -96.70388 42978 ft 400 kts 267°
2026-04-16 00:12 31.63497 -96.76902 42967 ft 400 kts 267°
2026-04-16 00:12 31.63863 -96.83410 42961 ft 400 kts 267°
2026-04-16 00:13 31.64226 -96.89958 42981 ft 403 kts 266°
2026-04-16 00:13 31.64592 -96.96510 42981 ft 402 kts 266°
2026-04-16 00:14 31.64949 -97.03071 42978 ft 403 kts 266°
2026-04-16 00:14 31.65303 -97.09589 42973 ft 403 kts 266°
2026-04-16 00:15 31.65655 -97.16148 42954 ft 403 kts 266°
2026-04-16 00:15 31.66017 -97.22710 42964 ft 404 kts 268°
2026-04-16 00:16 31.67161 -97.29265 42958 ft 417 kts 278°
2026-04-16 00:16 31.68938 -97.34598 42956 ft 424 kts 282°
2026-04-16 00:17 31.71169 -97.41000 42962 ft 423 kts 282°
2026-04-16 00:17 31.73413 -97.47399 42964 ft 424 kts 282°
2026-04-16 00:18 31.75648 -97.53808 42959 ft 424 kts 282°
2026-04-16 00:18 31.77881 -97.60213 42953 ft 425 kts 282°
2026-04-16 00:19 31.80137 -97.66712 42957 ft 430 kts 282°
2026-04-16 00:19 31.82390 -97.73186 42960 ft 431 kts 282°
2026-04-16 00:20 31.84649 -97.79717 42942 ft 432 kts 282°
2026-04-16 00:20 31.86908 -97.86243 42948 ft 431 kts 282°
2026-04-16 00:21 31.89162 -97.92781 42949 ft 431 kts 282°
2026-04-16 00:21 31.91419 -97.99335 42954 ft 434 kts 282°
2026-04-16 00:22 31.93681 -98.05909 42953 ft 433 kts 282°
2026-04-16 00:22 31.95935 -98.12484 42961 ft 433 kts 282°
2026-04-16 00:23 31.98188 -98.19063 42964 ft 433 kts 282°
2026-04-16 00:23 32.00436 -98.25645 42965 ft 433 kts 282°
2026-04-16 00:24 32.02682 -98.32230 42965 ft 433 kts 282°
2026-04-16 00:24 32.04910 -98.38777 42953 ft 433 kts 282°
2026-04-16 00:25 32.07146 -98.45363 42968 ft 434 kts 282°
2026-04-16 00:25 32.09382 -98.51960 42958 ft 433 kts 282°
2026-04-16 00:26 32.11616 -98.58566 42955 ft 433 kts 282°
2026-04-16 00:26 32.13845 -98.65167 42943 ft 433 kts 282°
2026-04-16 00:27 32.16070 -98.71773 42971 ft 433 kts 282°
2026-04-16 00:27 32.18115 -98.78401 42926 ft 426 kts 278°
2026-04-16 00:28 32.20001 -98.85064 42915 ft 428 kts 279°
2026-04-16 00:28 32.21884 -98.91724 42907 ft 427 kts 279°
2026-04-16 00:29 32.23747 -98.98347 42904 ft 428 kts 279°
2026-04-16 00:29 32.25623 -99.05013 42906 ft 428 kts 279°
2026-04-16 00:30 32.27493 -99.11690 42899 ft 429 kts 279°
2026-04-16 00:30 32.29367 -99.18384 42885 ft 431 kts 279°
2026-04-16 00:31 32.31240 -99.25097 42877 ft 430 kts 279°
2026-04-16 00:31 32.33109 -99.31810 42879 ft 430 kts 279°
2026-04-16 00:32 32.34977 -99.38535 42897 ft 430 kts 278°
2026-04-16 00:32 32.36841 -99.45259 42904 ft 430 kts 278°
2026-04-16 00:33 32.38705 -99.52006 42916 ft 432 kts 279°
2026-04-16 00:33 32.40574 -99.58767 42927 ft 432 kts 279°
2026-04-16 00:34 32.42421 -99.65486 42931 ft 432 kts 279°
2026-04-16 00:34 32.44278 -99.72247 42930 ft 432 kts 279°
2026-04-16 00:35 32.46131 -99.79009 42899 ft 432 kts 279°
2026-04-16 00:35 32.47977 -99.85785 42901 ft 433 kts 278°
2026-04-16 00:36 32.49386 -99.92657 42894 ft 429 kts 275°
2026-04-16 00:36 32.50788 -99.99568 42886 ft 432 kts 275°
2026-04-16 00:37 32.52158 -100.06491 42878 ft 431 kts 275°
2026-04-16 00:37 32.53539 -100.13419 42864 ft 432 kts 275°
2026-04-16 00:38 32.54908 -100.20346 42847 ft 432 kts 275°
2026-04-16 00:38 32.56280 -100.27295 42833 ft 433 kts 275°
2026-04-16 00:39 32.57650 -100.34249 42940 ft 433 kts 275°
2026-04-16 00:39 32.59015 -100.41213 42952 ft 433 kts 275°
2026-04-16 00:40 32.60376 -100.48173 42946 ft 433 kts 275°
2026-04-16 00:40 32.61723 -100.55082 42931 ft 433 kts 275°
2026-04-16 00:41 32.63077 -100.62046 42910 ft 433 kts 275°
2026-04-16 00:41 32.64427 -100.69010 42895 ft 433 kts 275°
2026-04-16 00:42 32.65772 -100.75974 42921 ft 433 kts 275°
2026-04-16 00:42 32.67113 -100.82939 42950 ft 433 kts 275°
2026-04-16 00:43 32.68452 -100.89914 42994 ft 434 kts 275°
2026-04-16 00:43 32.69790 -100.96913 42952 ft 434 kts 275°
2026-04-16 00:44 32.71123 -101.03904 42954 ft 434 kts 275°
2026-04-16 00:44 32.72453 -101.10899 42934 ft 434 kts 275°
2026-04-16 00:45 32.73780 -101.17901 42904 ft 434 kts 275°
2026-04-16 00:45 32.75101 -101.24897 42883 ft 434 kts 275°
2026-04-16 00:46 32.76418 -101.31892 42836 ft 435 kts 275°
2026-04-16 00:46 32.77739 -101.38931 42832 ft 436 kts 275°
2026-04-16 00:47 32.79048 -101.45925 42840 ft 436 kts 275°
2026-04-16 00:47 32.80359 -101.52962 42848 ft 436 kts 275°
2026-04-16 00:48 32.81668 -101.60006 42873 ft 436 kts 275°
2026-04-16 00:48 32.82972 -101.67046 42918 ft 436 kts 275°
2026-04-16 00:50 32.88180 -101.95403 42962 ft 439 kts 275°
2026-04-16 00:51 32.89471 -102.02495 42952 ft 439 kts 275°
2026-04-16 00:51 32.90765 -102.09634 42927 ft 442 kts 275°
2026-04-16 00:52 32.92052 -102.16734 42901 ft 442 kts 275°
2026-04-16 00:52 32.93349 -102.23938 42859 ft 442 kts 275°
2026-04-16 00:53 32.94627 -102.31051 42862 ft 442 kts 275°
2026-04-16 00:53 32.95907 -102.38202 42868 ft 442 kts 275°
2026-04-16 00:54 32.97184 -102.45364 42876 ft 441 kts 276°
2026-04-16 00:54 32.98453 -102.52502 42884 ft 441 kts 276°
2026-04-16 00:55 32.99720 -102.59652 42886 ft 441 kts 276°
2026-04-16 00:55 33.00982 -102.66804 42881 ft 441 kts 275°
2026-04-16 00:56 33.02240 -102.73954 42869 ft 441 kts 275°
2026-04-16 00:56 33.03494 -102.81112 42870 ft 441 kts 276°
2026-04-16 00:57 33.05368 -102.91848 42869 ft 441 kts 276°
2026-04-16 00:58 33.06604 -102.98962 42868 ft 441 kts 276°
2026-04-16 00:58 33.07844 -103.06126 42868 ft 441 kts 276°
2026-04-16 00:59 33.09080 -103.13289 42869 ft 441 kts 276°
2026-04-16 00:59 33.10314 -103.20470 42866 ft 442 kts 276°
2026-04-16 01:00 33.11546 -103.27662 42869 ft 442 kts 276°
2026-04-16 01:00 33.12771 -103.34845 42869 ft 442 kts 276°
2026-04-16 01:01 33.13993 -103.42030 42867 ft 442 kts 276°
2026-04-16 01:01 33.15210 -103.49219 42868 ft 442 kts 276°
2026-04-16 01:02 33.16424 -103.56410 42860 ft 442 kts 276°
2026-04-16 01:02 33.17633 -103.63604 42864 ft 442 kts 276°
2026-04-16 01:03 33.18839 -103.70802 42855 ft 442 kts 276°
2026-04-16 01:03 33.20044 -103.78030 42858 ft 445 kts 276°
2026-04-16 01:04 33.21251 -103.85274 42853 ft 445 kts 276°
2026-04-16 01:04 33.22447 -103.92508 42849 ft 444 kts 276°
2026-04-16 01:05 33.23634 -103.99696 42844 ft 444 kts 276°
2026-04-16 01:05 33.24825 -104.06937 42845 ft 444 kts 276°
2026-04-16 01:06 33.26010 -104.14176 42854 ft 444 kts 276°
2026-04-16 01:06 33.27001 -104.20243 42882 ft 444 kts 276°
2026-04-16 01:07 33.28178 -104.27484 42920 ft 444 kts 276°
2026-04-16 01:07 33.29344 -104.34678 42953 ft 444 kts 276°
2026-04-16 01:08 33.30513 -104.41925 42986 ft 444 kts 276°
2026-04-16 01:08 33.31677 -104.49162 42987 ft 443 kts 276°
2026-04-16 01:09 33.33123 -104.56354 42971 ft 450 kts 284°
2026-04-16 01:09 33.36016 -104.63087 42970 ft 465 kts 298°
2026-04-16 01:10 33.40421 -104.68876 42946 ft 478 kts 313°
2026-04-16 01:10 33.45519 -104.74021 42935 ft 478 kts 313°
2026-04-16 01:11 33.50562 -104.79150 42906 ft 478 kts 313°
2026-04-16 01:11 33.55426 -104.84524 42867 ft 469 kts 304°
2026-04-16 01:12 33.58940 -104.90982 42873 ft 460 kts 290°
2026-04-16 01:12 33.61720 -104.97902 42910 ft 460 kts 291°
2026-04-16 01:13 33.64510 -105.04812 42904 ft 460 kts 290°
2026-04-16 01:13 33.67280 -105.11729 42925 ft 460 kts 290°
2026-04-16 01:14 33.70059 -105.18654 42937 ft 460 kts 290°
2026-04-16 01:14 33.72828 -105.25584 42958 ft 460 kts 290°
2026-04-16 01:15 33.75577 -105.32470 42956 ft 459 kts 290°
2026-04-16 01:15 33.78355 -105.39453 42972 ft 462 kts 291°
2026-04-16 01:16 33.81109 -105.46376 42975 ft 462 kts 291°
2026-04-16 01:16 33.83878 -105.53359 42990 ft 462 kts 291°
2026-04-16 01:17 33.86641 -105.60339 42985 ft 462 kts 291°
2026-04-16 01:17 33.89398 -105.67322 42994 ft 461 kts 291°
2026-04-16 01:18 33.92145 -105.74291 42996 ft 461 kts 291°
2026-04-16 01:18 33.94890 -105.81268 43002 ft 461 kts 291°
2026-04-16 01:19 33.97634 -105.88265 42997 ft 463 kts 291°
2026-04-16 01:19 34.00383 -105.95280 42995 ft 463 kts 291°
2026-04-16 01:20 34.03108 -106.02253 43006 ft 462 kts 291°
2026-04-16 01:20 34.05840 -106.09257 42995 ft 462 kts 291°
2026-04-16 01:21 34.08568 -106.16265 42992 ft 462 kts 291°
2026-04-16 01:21 34.11290 -106.23275 42981 ft 462 kts 291°
2026-04-16 01:22 34.14012 -106.30297 42985 ft 462 kts 291°
2026-04-16 01:22 34.16734 -106.37337 42967 ft 465 kts 291°
2026-04-16 01:23 34.19469 -106.44419 42964 ft 465 kts 291°
2026-04-16 01:23 34.22198 -106.51506 42952 ft 465 kts 291°
2026-04-16 01:24 34.24920 -106.58590 42953 ft 465 kts 291°
2026-04-16 01:24 34.27639 -106.65682 42939 ft 465 kts 291°
2026-04-16 01:25 34.30355 -106.72779 42942 ft 466 kts 291°
2026-04-16 01:25 34.33073 -106.79897 42957 ft 466 kts 291°
2026-04-16 01:26 34.35324 -106.87201 42939 ft 463 kts 285°
2026-04-16 01:26 34.37384 -106.94525 42943 ft 462 kts 285°
2026-04-16 01:27 34.39434 -107.01904 42941 ft 462 kts 285°
2026-04-16 01:27 34.41485 -107.09281 42950 ft 462 kts 285°
2026-04-16 01:28 34.43526 -107.16649 42936 ft 461 kts 285°
2026-04-16 01:28 34.45567 -107.24037 42958 ft 461 kts 285°
2026-04-16 01:29 34.47601 -107.31414 42962 ft 462 kts 285°
2026-04-16 01:29 34.49630 -107.38795 42986 ft 462 kts 285°
2026-04-16 01:30 34.51663 -107.46212 42973 ft 463 kts 285°